Regional Weather Roundup
Issued by NWS

Home | Current Version | Previous Version | Graphics & Text | Print | Product List | Glossary On
Versions: 1 2 3 4 5 6 7 8 9 10 11 12 13 14 15 16 17 18 19 20 21 22 23 24 25 26 27 28 29 30 31 32 33 34 35 36 37 38 39 40 41 42 43 44 45 46 47 48 49 50
000
ASUS43 KFSD 042002
RWRSD

WEATHER ROUNDUP FOR SOUTH DAKOTA
NATIONAL WEATHER SERVICE SIOUX FALLS SD
300 PM CDT WED MAY 04 2016

NOTE: "FAIR" INDICATES FEW OR NO CLOUDS BELOW 12,000 FEET WITH NO
SIGNIFICANT WEATHER AND/OR OBSTRUCTIONS TO VISIBILITY.


SDZ001>005-009-010-012>017-042100-
NORTHWEST AND NORTH CENTRAL SOUTH DAKOTA

CITY           SKY/WX    TMP DP  RH WIND       PRES   REMARKS
BUFFALO          N/A     78  37  22 S13       30.00F
FAITH            N/A     75  39  27 CALM      30.07F
MOBRIDGE       SUNNY     73  41  31 S6        30.04F
$$

SDZ012>016-024>037-041>051-057-063-072>074-042100-
SOUTHWEST AND SOUTH CENTRAL SOUTH DAKOTA

CITY           SKY/WX    TMP DP  RH WIND       PRES   REMARKS
RAPID CTY ARPT SUNNY     76  43  30 S10       30.09F
PIERRE         SUNNY     71  35  26 CALM      30.07F
CUSTER         MOSUNNY   66  32  28 S8G17     30.18F
PHILIP         SUNNY     76  44  32 CALM      30.08F
PINE RIDGE     SUNNY     74  36  25 CALM      30.12F
WINNER         FAIR      71  35  26 N5        30.10F
$$

SDZ004>011-016>023-039-040-042100-
NORTHEAST SOUTH DAKOTA

CITY           SKY/WX    TMP DP  RH WIND       PRES   REMARKS
ABERDEEN       SUNNY     71  32  23 NW13      30.06F
WATERTOWN      SUNNY     66  31  27 NW13      30.04F
BROOKINGS      SUNNY     66  33  29 NW16      30.02F
SISSETON         N/A     69  26  20 N14G21    30.02F
$$

SDZ017-020-022-023-036>040-048>070-042100-
SOUTHEAST SOUTH DAKOTA

CITY           SKY/WX    TMP DP  RH WIND       PRES   REMARKS
SIOUX FALLS    MOSUNNY   66  38  35 NW8G18    30.03F
HURON          SUNNY     68  32  26 N14       30.06F
MITCHELL       SUNNY     67  35  30 NW10      30.07F
YANKTON        SUNNY     64  37  36 NW8G17    30.06F
$$

ABBREVIATIONS USED IN REMARKS
   TC - TEMPERATURE IN CELSIUS
  WCI - WIND CHILL INDEX
   HX - HEAT INDEX
  VSB - VISIBILITY





USA.gov is the U.S. government's official web portal to all federal, state and local government web resources and services.